Helicity
119 103 80 42 31 34 29 46 39 42 32 29 22 32 31 19 32 30 12 13 15 7 16 25 47 54 64 87 78 65 68 62 51 51 48 50 47 55 77 70 119 121 138
138 117 68 30 40 57 57 48 43 49 35 29 35 50 39 28 47 49 35 21 11 -1 2 39 48 48 52 54 56 85 87 71 59 50 69 41 36 44 65 69 71 112 98
132 102 64 63 67 77 80 68 63 62 67 76 79 67 61 67 84 62 37 21 15 7 23 35 42 40 55 54 49 50 64 75 62 56 52 76 58 64 51 42 59 64 79
110 113 90 85 112 120 113 93 82 87 108 120 118 120 106 84 76 66 52 38 39 37 40 49 33 21 32 44 49 59 61 55 59 53 53 51 52 62 70 78 78 68 42
120 132 143 141 132 123 126 133 134 140 152 139 152 152 117 103 74 55 48 42 38 34 27 37 47 64 91 82 44 57 62 58 64 70 55 44 42 56 66 72 68 69 52
116 140 181 166 145 145 157 166 154 165 176 160 158 142 116 82 91 74 49 37 46 42 34 37 56 62 38 47 57 52 47 30 51 56 69 59 58 56 39 49 66 33 -3
73 152 171 124 133 192 197 157 159 193 195 181 123 105 82 66 85 70 77 47 53 61 60 59 66 70 75 51 55 43 48 81 87 79 70 74 42 67 50 35 75 68 60
277 145 207 86 160 199 199 165 181 171 168 150 110 70 50 43 66 74 75 47 50 48 41 29 23 32 44 31 19 30 80 102 106 121 121 87 73 52 61 65 52 47 57
130 77 103 148 190 165 156 152 162 180 169 130 77 59 40 37 57 53 36 24 20 11 -1 -12 -3 -2 38 38 -13 -6 20 70 123 135 141 122 107 72 56 60 39 57 15
112 79 113 120 138 146 156 163 174 205 163 106 75 56 53 23 26 21 1 -37 -27 -29 -39 -34 -35 -1 10 19 -22 -37 -29 2 27 79 131 178 170 170 181 154 144 105 53
139 148 136 137 140 154 173 176 189 175 132 90 72 52 40 28 18 4 -32 -70 -79 -100 -87 -48 -56 -19 -43 -51 -29 -19 5 3 5 18 41 64 115 155 168 195 198 163 109
162 159 123 113 129 160 191 177 176 156 125 90 78 65 50 26 -29 -54 -50 -45 -37 -60 -33 -15 -11 -5 -8 -12 -16 -3 11 35 47 44 45 69 73 104 144 165 181 191 151
159 124 105 127 123 128 160 143 135 113 96 76 78 50 3 -22 -23 1 29 46 69 62 46 25 21 33 28 40 24 -5 -31 -68 -15 43 72 71 94 116 136 139 147 166 164
163 114 120 104 112 113 117 100 95 77 83 82 79 53 25 1 -5 8 48 82 92 82 61 41 7 -25 -59 -62 -35 -58 -124 -126 -35 28 47 63 65 99 140 151 151 163 142
121 111 119 119 114 120 116 79 61 20 58 77 55 58 51 43 30 48 78 94 94 69 60 57 42 30 1 -32 -46 -62 -112 -145 -41 44 67 53 63 73 113 139 157 164 156
140 127 116 105 103 119 120 106 56 37 10 27 62 103 67 41 43 56 69 80 69 77 134 119 112 84 68 37 2 -9 -34 -103 -61 15 50 41 48 59 66 94 88 120 133
153 136 141 147 144 143 133 120 97 45 44 34 36 41 44 65 50 57 64 80 105 121 202 202 194 159 132 120 93 86 82 30 -4 35 44 44 52 60 36 51 46 34 66
163 165 162 149 138 144 129 94 80 87 58 41 31 43 35 14 43 73 109 103 114 206 262 246 240 246 224 211 178 174 140 132 106 83 89 87 84 115 85 24 20 36 44
219 203 189 166 135 94 113 92 74 45 39 40 40 34 26 3 8 23 141 178 162 162 193 252 266 267 250 282 261 229 199 195 177 163 201 184 133 101 86 48 60 57 25
225 231 165 154 191 166 105 64 31 14 26 28 14 33 49 74 65 60 100 128 163 192 192 210 214 241 244 287 259 235 188 177 184 206 216 213 191 159 111 71 118 101 81
304 319 334 305 342 377 239 -42 2 17 11 7 5 21 73 84 72 72 70 77 129 159 161 166 179 207 246 255 237 216 177 163 169 176 190 198 201 199 177 177 138 136 119
238 151 124 149 140 36 -3 -22 -23 -1 11 25 22 33 39 92 100 97 82 92 99 121 136 141 153 199 201 199 183 170 154 133 128 141 153 165 182 224 233 250 248 173 125
183 178 141 71 19 27 -22 -16 -5 35 25 36 58 49 53 79 94 88 92 96 110 120 108 118 129 123 126 140 152 153 133 119 127 136 133 147 171 218 277 280 265 222 188
145 105 52 23 18 11 17 6 34 48 65 50 62 55 56 78 90 94 95 90 100 96 101 99 91 80 89 97 101 106 112 93 101 111 107 159 166 181 227 266 249 195 211
39 45 36 76 66 36 30 53 41 59 48 59 58 59 51 77 87 84 91 88 91 96 79 65 53 45 55 62 78 62 58 42 36 51 107 143 161 182 212 221 233 211 215
48 75 84 92 47 59 67 36 38 61 48 38 49 55 85 90 78 81 82 94 98 80 64 63 32 12 22 49 45 46 35 26 23 57 83 118 136 153 146 134 183 198 166
Wind_Speed
27 26 26 25 25 28 27 27 28 29 34 38 40 44 47 50 45 49 53 57 61 62 61 59 59 56 57 55 53 46 42 38 30 35 40 43 42 18 25 17 33 26 49
24 24 25 23 23 22 22 25 26 30 38 43 44 46 50 52 46 49 54 58 61 63 63 60 60 58 58 57 56 55 52 49 39 38 48 51 50 48 43 41 38 33 45
26 23 24 22 20 18 19 22 27 33 39 43 46 50 53 52 50 51 54 58 60 62 60 59 58 58 59 59 58 58 57 54 46 37 43 49 51 52 53 50 48 45 43
21 23 17 17 17 21 20 22 29 35 39 43 47 49 51 53 55 55 55 57 58 58 60 60 59 59 59 61 60 62 62 61 57 53 51 52 51 53 55 57 62 57 59
16 15 13 17 20 20 22 27 30 34 39 44 48 50 51 53 55 54 54 55 57 60 62 63 62 59 60 62 62 65 65 64 63 60 58 55 58 57 60 58 65 69 70
7 11 9 11 16 19 23 28 31 35 40 44 47 47 48 50 54 55 56 57 59 62 65 66 64 63 68 70 71 69 62 61 59 55 55 59 59 59 58 67 69 67 66
10 14 15 14 14 19 25 27 31 35 35 40 40 45 49 52 55 57 57 57 58 60 62 64 65 67 70 72 73 71 68 66 60 58 56 57 62 63 66 69 69 71 71
14 20 14 7 10 18 25 27 31 33 36 37 40 44 49 53 56 55 54 56 57 59 61 62 65 70 71 72 71 71 72 70 68 65 63 68 65 71 70 71 72 75 71
25 14 18 14 13 19 25 27 29 31 32 35 39 44 49 51 52 53 55 56 59 61 62 65 66 70 76 75 73 73 74 72 72 72 71 71 75 77 73 75 75 73 79
13 17 16 15 17 21 23 26 29 27 29 33 38 43 44 47 50 53 55 57 60 63 65 67 69 74 75 76 74 76 79 79 78 76 71 73 70 69 69 63 68 71 74
19 16 15 17 19 21 24 26 26 27 29 33 35 38 41 45 49 52 54 57 60 64 67 72 72 76 78 78 79 79 82 81 77 77 75 72 71 70 69 71 70 70 73
15 16 16 19 21 23 25 26 26 27 29 31 32 35 39 44 47 50 53 57 60 65 69 71 74 80 82 82 80 83 85 81 80 80 78 77 76 76 77 77 76 76 73
16 16 17 20 22 24 25 26 27 27 27 28 32 36 39 42 45 50 55 59 62 66 67 70 75 80 83 84 86 88 88 85 85 86 85 82 80 78 79 76 76 76 77
13 14 15 18 20 23 25 26 27 26 25 27 33 37 41 44 47 50 53 57 59 61 64 67 71 74 79 82 85 86 89 89 88 85 83 81 81 82 80 76 78 76 76
13 13 16 16 17 21 25 24 24 22 24 30 32 35 41 47 48 47 51 55 57 61 65 66 71 75 81 84 87 86 88 92 91 84 83 83 82 82 83 80 77 77 74
12 14 15 16 18 21 24 26 25 24 22 25 33 33 41 41 45 46 47 50 53 58 63 67 72 75 80 83 86 87 87 93 88 82 79 77 77 79 81 79 76 76 77
12 14 19 22 22 24 24 25 27 27 28 29 32 35 39 44 43 44 45 49 55 59 61 64 66 70 73 77 79 79 81 84 80 76 75 73 70 69 76 76 74 74 77
19 18 20 25 27 25 25 25 27 30 33 37 38 37 36 38 42 44 48 55 61 57 56 59 64 65 63 68 69 70 72 72 71 74 72 68 67 56 59 75 73 74 75
19 21 24 28 28 28 30 32 32 27 31 35 43 43 39 45 49 51 53 51 53 57 59 59 59 60 60 61 58 59 60 60 62 65 50 51 60 61 71 76 76 77 76
20 20 17 24 27 28 33 36 34 29 28 32 39 39 44 48 55 62 61 61 59 56 58 59 59 57 57 55 50 53 53 55 51 50 40 33 32 37 28 28 58 65 66
25 24 27 32 33 37 37 28 29 27 29 36 42 40 39 49 58 57 64 69 67 62 60 59 56 57 56 52 49 50 50 43 36 31 29 35 41 33 33 35 33 42 46
18 19 19 23 28 25 34 38 35 31 33 34 37 40 50 52 52 51 64 68 67 65 63 62 64 64 57 53 51 51 45 36 27 29 29 35 37 39 39 38 41 49 59
16 16 22 24 22 28 38 31 21 18 28 34 41 51 53 53 53 56 63 66 70 74 74 73 72 71 63 56 49 48 50 38 42 36 33 32 28 34 38 40 36 34 30
17 19 19 26 33 32 26 23 20 30 31 40 45 47 50 55 57 56 59 65 75 80 80 76 70 71 67 60 54 52 52 55 50 46 44 38 27 29 44 43 41 34 37
15 20 26 31 37 37 37 34 33 39 41 43 45 50 51 55 52 58 62 69 78 80 76 75 74 74 71 65 58 48 46 58 64 62 58 54 56 46 50 48 52 40 36
15 19 24 33 35 39 43 41 38 38 42 50 51 51 51 48 54 60 67 74 75 74 76 74 75 77 74 66 67 45 27 16 19 36 55 55 55 64 72 82 58 48 40
Wind_Direction
124 118 116 112 101 102 95 81 70 40 16 6 5 358 356 351 358 355 351 348 346 345 345 342 342 350 344 343 342 348 351 353 1 355 346 340 334 340 324 315 312 301 294
125 119 120 111 103 90 70 68 57 30 359 345 349 350 347 346 356 352 347 346 344 343 341 343 342 347 345 341 341 338 337 337 341 345 333 329 330 329 326 323 322 318 304
131 123 115 105 91 76 60 45 30 15 3 354 349 343 342 348 349 347 344 343 344 344 346 346 348 348 344 339 336 335 335 336 340 341 335 329 326 326 322 321 320 322 316
134 124 105 87 75 69 47 23 360 356 352 350 349 349 345 341 339 342 344 344 345 345 344 344 345 346 343 339 336 332 328 329 331 334 331 328 326 323 319 315 310 313 308
137 111 96 87 81 67 46 13 3 354 350 346 345 344 343 342 342 345 347 349 347 344 343 341 340 342 340 339 338 331 328 327 326 329 329 328 324 321 316 316 309 305 301
276 77 58 56 54 53 40 26 15 5 358 347 344 350 349 349 345 345 348 347 346 343 339 337 338 339 334 330 327 326 331 331 331 332 329 324 323 318 318 312 309 309 307
69 47 350 353 20 25 19 24 20 12 20 13 358 353 348 348 347 348 351 352 350 348 345 344 343 340 338 335 332 331 329 326 325 324 323 321 317 315 314 312 309 305 303
99 108 85 103 63 23 9 11 11 13 13 17 13 4 356 351 350 354 356 356 355 354 353 350 347 343 340 337 336 334 331 330 329 325 319 312 312 309 308 306 305 302 303
115 74 89 84 43 22 8 10 13 16 21 17 12 7 1 0 2 4 4 4 2 360 358 355 353 349 342 338 336 333 332 331 329 326 322 317 309 306 306 305 301 301 297
80 87 63 62 36 21 19 13 13 27 27 22 16 10 12 13 11 11 10 10 8 7 6 4 1 354 349 345 343 339 334 330 328 326 326 322 320 316 313 313 307 301 297
91 66 50 33 31 30 22 23 27 27 27 21 19 19 18 15 12 10 11 9 6 3 0 0 1 357 354 351 349 346 339 336 332 327 324 322 321 318 314 311 308 303 297
67 64 51 43 33 31 28 26 30 28 22 20 21 17 15 11 8 7 6 6 6 1 357 358 357 355 354 354 353 350 346 342 338 332 328 323 319 316 312 309 305 302 298
66 65 50 37 33 34 30 22 16 14 13 17 13 9 6 4 2 0 0 1 0 359 359 358 356 355 355 354 352 351 348 344 338 333 328 323 320 317 312 308 304 303 299
64 54 46 43 35 26 20 17 14 12 12 13 3 359 357 357 359 360 359 358 358 357 356 356 356 355 355 353 350 350 349 346 341 336 332 328 323 318 311 309 305 302 300
62 47 35 39 38 21 13 16 19 18 13 1 356 355 352 350 354 358 357 355 354 351 349 350 350 350 349 350 350 351 351 350 346 343 337 331 327 321 315 307 302 299 296
41 24 20 17 10 4 360 360 1 2 360 357 351 351 347 349 351 352 353 352 350 349 348 347 346 347 347 348 348 348 350 351 351 348 345 341 336 329 319 311 303 296 295
13 358 350 349 351 350 348 349 348 347 353 351 347 345 343 342 345 347 347 347 345 345 344 344 344 345 346 347 348 349 349 352 353 354 352 352 350 344 331 316 309 301 294
354 355 352 348 345 347 345 344 341 338 338 342 344 343 342 341 343 344 342 340 341 345 345 344 344 344 344 345 347 347 348 352 353 353 352 353 355 2 353 322 315 311 303
349 345 344 345 349 347 349 344 340 341 337 339 341 345 346 342 344 346 346 346 345 346 346 347 347 346 346 345 344 346 348 351 354 354 1 360 356 356 344 327 321 317 314
343 347 351 345 346 349 345 345 345 341 351 352 346 347 346 347 345 343 347 349 349 348 347 347 348 349 347 345 344 346 348 352 355 358 359 359 1 3 349 319 340 333 327
348 347 347 344 346 346 344 349 359 1 354 347 344 345 346 343 340 343 347 348 349 351 351 352 351 349 347 346 346 347 349 352 355 356 357 1 2 353 349 345 332 337 334
5 4 360 352 346 356 345 338 338 346 348 349 350 349 342 341 343 347 346 349 353 354 354 353 350 348 349 349 349 349 351 353 354 359 360 0 358 355 352 345 344 344 333
358 1 357 360 356 345 339 340 345 351 350 347 345 339 341 344 344 344 346 349 350 351 350 351 349 348 351 353 355 354 352 356 357 2 2 357 346 352 353 348 340 344 340
10 19 19 359 349 348 355 2 355 354 351 346 345 344 345 346 347 350 352 351 348 347 348 350 352 349 351 355 357 359 355 349 353 358 0 359 341 339 358 355 351 344 347
23 24 11 8 3 8 8 0 355 349 350 349 350 347 348 349 359 358 356 353 350 351 353 351 348 347 350 354 357 3 2 351 342 347 354 358 358 1 3 1 0 352 339
51 37 23 10 6 2 359 357 357 355 348 341 343 346 349 355 355 356 355 354 356 356 355 355 349 344 347 356 353 10 12 2 6 6 358 1 3 3 2 359 7 6 355